TimePST,TemperatureF,Dew PointF,Humidity,Sea Level PressureIn,VisibilityMPH,Wind Direction,Wind SpeedMPH,Gust SpeedMPH,PrecipitationIn,Events,Conditions,WindDirDegrees,DateUTC
12:14 AM,37.4,37.4,100,30.08,0.2,Calm,Calm,-,N/A,Fog,Fog,0,2013-01-24 08:14:00
12:26 AM,37.4,37.4,100,30.09,0.2,SE,3.5,-,N/A,Fog,Fog,140,2013-01-24 08:26:00
12:52 AM,37.4,37.4,100,30.09,0.2,SSE,3.5,-,0.00,Fog-Rain,Light Rain,160,2013-01-24 08:52:00
12:56 AM,37.9,37.0,97,30.12,0.2,SSE,3.5,-,0.00,Fog-Rain,Light Rain,160,2013-01-24 08:56:00
1:25 AM,37.4,37.4,100,30.09,0.5,SSE,4.6,-,0.01,Fog-Rain,Light Rain,150,2013-01-24 09:25:00
1:38 AM,37.4,37.4,100,30.10,0.2,SSE,5.8,-,0.01,Fog-Rain,Light Rain,160,2013-01-24 09:38:00
1:53 AM,37.4,37.4,100,30.10,0.5,SSE,5.8,-,0.01,Fog-Rain,Light Rain,150,2013-01-24 09:53:00
1:56 AM,37.9,37.0,97,30.12,0.5,SSE,5.8,-,0.01,Fog-Rain,Light Rain,160,2013-01-24 09:56:00
2:04 AM,37.4,37.4,100,30.10,0.5,South,5.8,-,0.00,Fog-Rain,Light Rain,170,2013-01-24 10:04:00
2:35 AM,37.4,37.4,100,30.10,0.2,SSE,5.8,-,0.01,Fog-Rain,Light Rain,160,2013-01-24 10:35:00
2:48 AM,37.4,37.4,100,30.10,0.5,SSE,6.9,-,0.01,Fog-Rain,Light Rain,160,2013-01-24 10:48:00
2:56 AM,37.9,37.0,97,30.12,0.2,SSE,6.9,-,0.02,Fog-Rain,Light Rain,160,2013-01-24 10:56:00
3:39 AM,37.4,37.4,100,30.09,0.5,South,10.4,-,0.01,Fog,Fog,170,2013-01-24 11:39:00
3:42 AM,37.4,37.4,100,30.09,0.2,South,10.4,-,0.01,Fog,Fog,170,2013-01-24 11:42:00
3:56 AM,37.9,37.0,97,30.12,0.2,South,10.4,-,0.01,Fog,Fog,180,2013-01-24 11:56:00
4:14 AM,37.4,37.4,100,30.09,0.5,South,11.5,17.3,N/A,Fog,Fog,180,2013-01-24 12:14:00
4:32 AM,37.4,37.4,100,30.09,0.2,South,10.4,-,N/A,Fog,Fog,180,2013-01-24 12:32:00
4:41 AM,37.4,37.4,100,30.09,0.5,South,11.5,-,N/A,Fog,Fog,180,2013-01-24 12:41:00
4:56 AM,37.9,37.9,100,30.13,1.0,South,9.2,-,N/A,,Overcast,180,2013-01-24 12:56:00
5:10 AM,39.2,37.4,93,30.10,2.0,South,10.4,-,N/A,,Overcast,180,2013-01-24 13:10:00
5:16 AM,37.4,37.4,100,30.10,1.2,South,10.4,-,N/A,,Overcast,190,2013-01-24 13:16:00
5:32 AM,37.4,37.4,100,30.10,0.5,South,10.4,-,N/A,Fog,Fog,190,2013-01-24 13:32:00
5:48 AM,37.4,37.4,100,30.10,0.2,South,11.5,-,N/A,Fog,Fog,180,2013-01-24 13:48:00
5:56 AM,37.9,37.0,97,30.13,0.2,South,10.4,-,N/A,Fog,Fog,180,2013-01-24 13:56:00
6:14 AM,37.4,37.4,100,30.10,0.8,South,11.5,-,N/A,,Overcast,180,2013-01-24 14:14:00
6:32 AM,37.4,37.4,100,30.10,0.2,South,9.2,-,N/A,Fog,Fog,170,2013-01-24 14:32:00
6:56 AM,37.9,37.0,97,30.15,0.2,SSE,8.1,-,N/A,Fog,Fog,160,2013-01-24 14:56:00
7:56 AM,37.9,37.0,97,30.14,0.2,SSE,9.2,-,N/A,Fog,Fog,150,2013-01-24 15:56:00
8:24 AM,37.4,37.4,100,30.11,0.5,South,9.2,-,N/A,Fog,Fog,170,2013-01-24 16:24:00
8:46 AM,39.2,37.4,93,30.12,1.5,South,9.2,-,N/A,,Overcast,170,2013-01-24 16:46:00
8:54 AM,37.4,37.4,100,30.12,0.2,South,9.2,-,N/A,Fog,Fog,180,2013-01-24 16:54:00
8:56 AM,37.9,37.9,100,30.15,0.2,South,8.1,-,N/A,Fog,Fog,170,2013-01-24 16:56:00
9:08 AM,39.2,37.4,93,30.12,1.0,South,10.4,-,N/A,,Overcast,180,2013-01-24 17:08:00
9:10 AM,39.2,37.4,93,30.12,2.0,South,9.2,-,N/A,,Overcast,180,2013-01-24 17:10:00
9:17 AM,39.2,37.4,93,30.13,10.0,South,9.2,-,N/A,,Mostly Cloudy,180,2013-01-24 17:17:00
9:26 AM,39.2,37.4,93,30.13,2.5,South,9.2,-,N/A,,Mostly Cloudy,180,2013-01-24 17:26:00
9:35 AM,39.2,39.2,100,30.13,10.0,South,9.2,-,N/A,,Mostly Cloudy,180,2013-01-24 17:35:00
9:56 AM,41.0,41.0,100,30.17,10.0,South,9.2,-,N/A,,Partly Cloudy,170,2013-01-24 17:56:00
10:09 AM,41.0,41.0,100,30.13,2.5,SSE,9.2,-,N/A,,Scattered Clouds,160,2013-01-24 18:09:00
10:13 AM,41.0,39.2,93,30.13,1.0,SSE,9.2,-,N/A,,Mist,160,2013-01-24 18:13:00
10:21 AM,42.8,41.0,93,30.13,0.5,SSE,11.5,-,N/A,Fog,Fog,160,2013-01-24 18:21:00
10:33 AM,41.0,41.0,100,30.13,1.2,South,9.2,-,N/A,,Overcast,170,2013-01-24 18:33:00
10:37 AM,42.8,39.2,87,30.13,2.0,South,10.4,-,N/A,,Mostly Cloudy,170,2013-01-24 18:37:00
10:47 AM,41.0,39.2,93,30.14,4.0,South,11.5,17.3,N/A,,Mostly Cloudy,170,2013-01-24 18:47:00
10:56 AM,42.1,39.9,92,30.17,10.0,South,10.4,17.3,N/A,,Scattered Clouds,180,2013-01-24 18:56:00
11:56 AM,43.0,39.0,86,30.16,10.0,SSW,11.5,17.3,N/A,,Clear,200,2013-01-24 19:56:00
12:48 PM,42.8,39.2,87,30.12,10.0,South,11.5,-,N/A,,Partly Cloudy,180,2013-01-24 20:48:00
12:56 PM,44.1,39.0,82,30.14,10.0,South,9.2,-,N/A,,Partly Cloudy,180,2013-01-24 20:56:00
1:56 PM,44.1,39.0,82,30.14,10.0,SSW,10.4,19.6,N/A,,Clear,200,2013-01-24 21:56:00
2:56 PM,44.1,39.0,82,30.13,10.0,South,12.7,20.7,N/A,,Mostly Cloudy,180,2013-01-24 22:56:00
3:56 PM,43.0,37.9,82,30.14,10.0,SSW,13.8,20.7,N/A,,Overcast,200,2013-01-24 23:56:00
4:56 PM,42.1,37.9,85,30.14,10.0,South,12.7,-,N/A,,Mostly Cloudy,190,2013-01-25 00:56:00
5:56 PM,42.1,39.0,89,30.16,10.0,South,10.4,-,N/A,,Overcast,180,2013-01-25 01:56:00
6:24 PM,42.8,39.2,87,30.15,10.0,SSW,10.4,-,N/A,,Overcast,200,2013-01-25 02:24:00
6:56 PM,42.1,39.0,89,30.17,10.0,South,11.5,-,N/A,,Overcast,190,2013-01-25 02:56:00
7:43 PM,41.0,39.2,93,30.14,10.0,South,15.0,-,N/A,,Overcast,180,2013-01-25 03:43:00
7:48 PM,41.0,39.2,93,30.14,2.5,South,15.0,-,N/A,,Overcast,180,2013-01-25 03:48:00
7:50 PM,41.0,39.2,93,30.15,1.2,South,12.7,-,N/A,,Overcast,180,2013-01-25 03:50:00
7:56 PM,41.0,39.9,96,30.17,0.5,South,13.8,-,N/A,Fog,Fog,180,2013-01-25 03:56:00
8:03 PM,41.0,39.2,93,30.15,0.2,South,13.8,-,N/A,Fog,Fog,190,2013-01-25 04:03:00
8:30 PM,41.0,39.2,93,30.15,0.5,South,15.0,-,N/A,Fog,Fog,180,2013-01-25 04:30:00
8:56 PM,39.9,39.9,100,30.18,0.2,South,15.0,-,N/A,Fog,Fog,180,2013-01-25 04:56:00
9:52 PM,39.2,39.2,100,30.15,0.2,SSW,12.7,-,0.00,Fog-Rain,Light Rain,200,2013-01-25 05:52:00
9:56 PM,39.9,39.0,97,30.17,0.2,SSW,12.7,-,0.00,Fog-Rain,Light Rain,200,2013-01-25 05:56:00
10:26 PM,39.2,39.2,100,30.15,0.2,SSW,13.8,20.7,0.00,Fog,Fog,200,2013-01-25 06:26:00
10:56 PM,39.9,39.9,100,30.17,0.2,South,12.7,18.4,0.01,Fog-Rain,Light Rain,190,2013-01-25 06:56:00
11:34 PM,39.2,39.2,100,30.15,0.2,South,15.0,-,0.02,Fog-Rain,Light Rain,180,2013-01-25 07:34:00
11:41 PM,39.2,39.2,100,30.15,0.2,South,13.8,20.7,0.02,Fog-Rain,Light Rain,180,2013-01-25 07:41:00
11:56 PM,39.9,39.9,100,30.17,0.2,South,11.5,-,0.03,Fog-Rain,Light Rain,190,2013-01-25 07:56:00